Weather History for KMDQ - October, 2011

Change the Weather History Date:

Monday, October 10, 2011

  Actual Average (KHSV) Record (KHSV)
Temperature  
Mean Temperature 69 °F 65 °F  
Max Temperature 78 °F 77 °F 92 °F (1938)
Min Temperature 60 °F 53 °F 31 °F (2000)
Degree Days  
Heating Degree Days 0 3  
Month to date heating degree days 24  
Since 1 July heating degree days 37  
Cooling Degree Days 4 3  
Month to date cooling degree days 36  
Year to date cooling degree days 1906  
Growing Degree Days 19 (Base 50)    
Moisture  
Dew Point 58 °F    
Average Humidity 71    
Maximum Humidity 94    
Minimum Humidity 44    
Precipitation  
Precipitation 0.00 in 0.10 in 4.25 in (1905)
Month to date precipitation 1.10  
Year to date precipitation 41.14  
Snow  
Snow 0.00 in - - ()
Month to date snowfall  
Since 1 July snowfall  
Since 1 September snowfall  
Snow Depth -    
Sea Level Pressure  
Sea Level Pressure 30.10 in    
Wind  
Wind Speed 3 mph (East)    
Max Wind Speed 13 mph    
Max Gust Speed 17 mph    
Visibility 10 miles    
Events      
T = Trace of Precipitation, MM = Missing Value Source: NWS Daily Summary

Daily Weather History Graph

Daily Weather History Graph

Search for Another Location

Airport or City:

Trip Planner

Search our weather history database for the weather conditions in past years. The results will help you decide how hot, cold, wet, or windy it might be!

Date:

Astronomy

Oct. 10, 2011 Rise Set
Actual Time 6:47 AM CDT 6:18 PM CDT
Civil Twilight 6:22 AM CDT 6:43 PM CDT
Nautical Twilight 5:53 AM CDT 7:12 PM CDT
Astronomical Twilight 5:23 AM CDT 7:42 PM CDT
Moon 5:21 PM CDT (10/10) 5:29 AM CDT (10/10)
Length of Visible Light 12h 21m
Length of Day
11h 30m
Waxing Gibbous, 98% of the Moon is Illuminated
Oct 10
Waxing Gibbous
Oct 11
Full
Oct 19
Last Quarter
Oct 26
New
Nov 2
First Quarter

Hourly Weather History & Observations

Time (CDT) Temp. Dew Point Humidity Pressure Visibility Wind Dir Wind Speed Gust Speed Precip Events Conditions
12:15 AM 64.4 °F 55.4 °F 73% 30.16 in 10.0 mi SSE 3.5 mph - N/A   Clear
12:35 AM 64.4 °F 55.4 °F 73% 30.16 in 10.0 mi Calm Calm - N/A   Clear
12:55 AM 64.4 °F 55.4 °F 73% 30.15 in 10.0 mi Calm Calm - N/A   Clear
1:15 AM 64.4 °F 55.4 °F 73% 30.14 in 10.0 mi ESE 4.6 mph - N/A   Clear
1:35 AM 66.2 °F 55.4 °F 68% 30.15 in 10.0 mi SE 5.8 mph - N/A   Clear
1:55 AM 62.6 °F 55.4 °F 77% 30.14 in 10.0 mi Calm Calm - N/A   Clear
2:15 AM 62.6 °F 55.4 °F 77% 30.14 in 10.0 mi Calm Calm - N/A   Scattered Clouds
2:35 AM 60.8 °F 55.4 °F 82% 30.14 in 10.0 mi Calm Calm - N/A   Scattered Clouds
2:55 AM 60.8 °F 55.4 °F 82% 30.13 in 10.0 mi Calm Calm - N/A   Mostly Cloudy
3:35 AM 60.8 °F 55.4 °F 82% 30.12 in 10.0 mi Calm Calm - N/A   Clear
3:55 AM 60.8 °F 55.4 °F 82% 30.12 in 10.0 mi Calm Calm - N/A   Scattered Clouds
4:15 AM 60.8 °F 57.2 °F 88% 30.11 in 10.0 mi Calm Calm - N/A   Overcast
4:35 AM 60.8 °F 57.2 °F 88% 30.12 in 10.0 mi ENE 3.5 mph - N/A   Overcast
4:55 AM 62.6 °F 57.2 °F 82% 30.12 in 10.0 mi Calm Calm - N/A   Overcast
5:15 AM 60.8 °F 57.2 °F 88% 30.12 in 10.0 mi Calm Calm - N/A   Mostly Cloudy
5:35 AM 60.8 °F 59.0 °F 94% 30.12 in 10.0 mi Calm Calm - N/A   Overcast
5:55 AM 62.6 °F 57.2 °F 82% 30.12 in 10.0 mi NE 4.6 mph - N/A   Overcast
6:15 AM 62.6 °F 59.0 °F 88% 30.12 in 10.0 mi ENE 3.5 mph - N/A   Mostly Cloudy
6:35 AM 64.4 °F 57.2 °F 77% 30.13 in 10.0 mi Calm Calm - N/A   Scattered Clouds
6:55 AM 60.8 °F 57.2 °F 88% 30.13 in 10.0 mi NNW 3.5 mph - N/A   Scattered Clouds
7:15 AM 62.6 °F 55.4 °F 77% 30.13 in 10.0 mi NNE 3.5 mph - N/A   Mostly Cloudy
7:35 AM 60.8 °F 55.4 °F 82% 30.14 in 10.0 mi North 6.9 mph - N/A   Scattered Clouds
8:15 AM 62.6 °F 55.4 °F 77% 30.15 in 10.0 mi NNE 3.5 mph - N/A   Scattered Clouds
8:35 AM 62.6 °F 55.4 °F 77% 30.15 in 10.0 mi NNE 5.8 mph - N/A   Mostly Cloudy
8:55 AM 64.4 °F 57.2 °F 77% 30.15 in 10.0 mi North 4.6 mph - N/A   Overcast
9:15 AM 68.0 °F 57.2 °F 68% 30.15 in 10.0 mi NNE 5.8 mph - N/A   Mostly Cloudy
9:55 AM 71.6 °F 59.0 °F 64% 30.15 in 10.0 mi NNE 6.9 mph - N/A   Scattered Clouds
10:15 AM 69.8 °F 59.0 °F 68% 30.15 in 10.0 mi NE 5.8 mph - N/A   Scattered Clouds
10:35 AM 73.4 °F 59.0 °F 61% 30.14 in 10.0 mi NNE 3.5 mph - N/A   Scattered Clouds
10:55 AM 73.4 °F 59.0 °F 61% 30.14 in 10.0 mi ESE 9.2 mph - N/A   Scattered Clouds
11:15 AM 73.4 °F 59.0 °F 61% 30.14 in 10.0 mi East 12.7 mph 17.3 mph N/A   Mostly Cloudy
11:35 AM 73.4 °F 59.0 °F 61% 30.14 in 10.0 mi East 5.8 mph - N/A   Mostly Cloudy
11:55 AM 73.4 °F 59.0 °F 61% 30.13 in 10.0 mi ENE 4.6 mph - N/A   Overcast
12:15 PM 75.2 °F 59.0 °F 57% 30.13 in 10.0 mi ESE 6.9 mph - N/A   Overcast
12:35 PM 77.0 °F 57.2 °F 50% 30.12 in 10.0 mi ESE 9.2 mph - N/A   Scattered Clouds
12:55 PM 77.0 °F 57.2 °F 50% 30.10 in 10.0 mi ESE 8.1 mph - N/A   Scattered Clouds
1:15 PM 77.0 °F 57.2 °F 50% 30.09 in 10.0 mi ESE 3.5 mph - N/A   Mostly Cloudy
1:35 PM 77.0 °F 57.2 °F 50% 30.08 in 10.0 mi SE 5.8 mph - N/A   Overcast
1:55 PM 78.8 °F 57.2 °F 47% 30.07 in 10.0 mi ESE 6.9 mph - N/A   Mostly Cloudy
2:15 PM 78.8 °F 55.4 °F 44% 30.06 in 10.0 mi East 9.2 mph - N/A   Mostly Cloudy
2:35 PM 78.8 °F 55.4 °F 44% 30.05 in 10.0 mi SE 8.1 mph - N/A   Scattered Clouds
3:15 PM 77.0 °F 57.2 °F 50% 30.04 in 10.0 mi NE 6.9 mph - N/A   Mostly Cloudy
3:35 PM 77.0 °F 55.4 °F 47% 30.04 in 10.0 mi ENE 5.8 mph - N/A   Overcast
3:55 PM 77.0 °F 55.4 °F 47% 30.04 in 10.0 mi ESE 5.8 mph - N/A   Overcast
4:15 PM 77.0 °F 55.4 °F 47% 30.04 in 10.0 mi ESE 4.6 mph - N/A   Overcast
4:35 PM 77.0 °F 57.2 °F 50% 30.03 in 10.0 mi SE 3.5 mph - N/A   Overcast
4:55 PM 77.0 °F 59.0 °F 54% 30.03 in 10.0 mi ESE 6.9 mph - N/A   Overcast
5:55 PM 73.4 °F 59.0 °F 61% 30.03 in 10.0 mi East 3.5 mph - N/A   Overcast
6:15 PM 71.6 °F 59.0 °F 64% 30.02 in 10.0 mi Calm Calm - N/A   Scattered Clouds
6:35 PM 69.8 °F 60.8 °F 73% 30.02 in 10.0 mi Calm Calm - N/A   Clear
6:55 PM 68.0 °F 60.8 °F 78% 30.02 in 10.0 mi Calm Calm - N/A   Scattered Clouds
7:15 PM 64.4 °F 60.8 °F 88% 30.03 in 10.0 mi Calm Calm - N/A   Mostly Cloudy
7:35 PM 64.4 °F 60.8 °F 88% 30.03 in 10.0 mi Calm Calm - N/A   Scattered Clouds
7:55 PM 64.4 °F 60.8 °F 88% 30.03 in 10.0 mi Calm Calm - N/A   Clear
8:15 PM 62.6 °F 60.8 °F 94% 30.03 in 10.0 mi Calm Calm - N/A   Scattered Clouds
8:35 PM 62.6 °F 59.0 °F 88% 30.03 in 10.0 mi Calm Calm - N/A   Scattered Clouds
8:55 PM 62.6 °F 60.8 °F 94% 30.03 in 10.0 mi Calm Calm - N/A   Scattered Clouds
9:15 PM 62.6 °F 60.8 °F 94% 30.04 in 10.0 mi Calm Calm - N/A   Overcast
9:35 PM 62.6 °F 59.0 °F 88% 30.04 in 10.0 mi Calm Calm - N/A   Overcast
9:55 PM 64.4 °F 60.8 °F 88% 30.04 in 10.0 mi ESE 3.5 mph - N/A   Overcast
10:15 PM 64.4 °F 60.8 °F 88% 30.04 in 10.0 mi ESE 3.5 mph - N/A   Overcast
10:35 PM 66.2 °F 60.8 °F 83% 30.03 in 10.0 mi SE 4.6 mph - N/A   Overcast
10:55 PM 68.0 °F 59.0 °F 73% 30.03 in 10.0 mi SE 6.9 mph - N/A   Overcast
11:15 PM 68.0 °F 59.0 °F 73% 30.02 in 10.0 mi East 8.1 mph - N/A   Overcast
11:35 PM 68.0 °F 59.0 °F 73% 30.02 in 10.0 mi ESE 4.6 mph - N/A   Overcast
11:55 PM 66.2 °F 60.8 °F 83% 30.03 in 10.0 mi SE 4.6 mph - N/A   Drizzle